Location: Hac?musa Deresi
(39.1694°N, 32.2508°E)
Time: 01:00:34
(UTC+00:00)

Cosmos 1833 Rocket - Pass Details

Date: 22 April 2026
Orbit: 832 x 838 km, 71.0° (Epoch: 9 May)

Event Time Altitude Azimuth Distance (km) Brightness Sun altitude
Exits shadow 21:19:39 27° 14° (NNE) 1,566 4.5 -37.9°
Drops below altitude 10° 21:22:05 10° 19° (NNE) 2,447 5.7 -38.0°
Sets 21:24:32 0° 22° (NNE) 3,385 6.6 -38.1°
